Flag for Slovakia Weather past 2 weeks in Prešov, Slovakia

Now
46 °F

Partly cloudy.


Feels Like: 40 °F
Forecast: 33 / 47 °F
Wind: 15 mph from South

Location: Kosice - Barca

Current Time: Mar 30, 2015 at 2:25:46 AM

Latest Report: Mar 30, 2015 at 2:00 AM


Visibility: N/A

Pressure: 29.56 "Hg

Humidity: 82%

Dew point: 41 °F

Location of PrešovLocation

Historic Weather in Prešov — Graph

°F

Prešov temperature yesterday

Maximum temperature yesterday: 57 °F (at 2:30 PM)
Minimum temperature yesterday: 37 °F (at 7:30 AM)
Average temperature yesterday: 49 °F

Past Weeks' High & Low Weather Summary

 TemperatureHumidityPressure
High72 °F (Mar 27, 1:30 PM)100% (Mar 15, 12:00 AM)30.60 "Hg (Mar 15, 12:00 AM)
Low27 °F (Mar 20, 6:00 AM)22% (Mar 23, 3:30 PM)29.59 "Hg (Mar 30, 12:30 AM)
Average46 °F59%30.12 "Hg
* Reported Midnight between Mar 14 and Mar 15 — Mar 30 1:00 AM, Prešov, Weather by CustomWeather, © 2015

Note: Actual official high and low records may vary slightly from our data, if they occured in-between our weather recording intervals... More about our weather records

Advertising

Prešov weather history for previous 24 hours

 ConditionsComfort  
Time TempWeatherWind HumidityBarometerVisibility
1:00 AM
Mon, Mar 30
48 °FOvercast.12 mph71%29.59 "HgN/A
12:30 AM48 °FMostly cloudy.15 mph71%29.59 "HgN/A
12:00 AM48 °FOvercast.10 mph71%29.62 "HgN/A
11:30 PM
Sun, Mar 29
48 °FMostly cloudy.10 mph71%29.62 "HgN/A
11:00 PM48 °FClear.12 mph71%29.62 "Hg10 mi
10:30 PM48 °FClear.13 mph66%29.65 "Hg10 mi
10:00 PM48 °FClear.12 mph66%29.65 "Hg10 mi
9:30 PM50 °FClear.15 mph58%29.65 "Hg10 mi
9:00 PM48 °FClear.12 mph62%29.65 "Hg10 mi
8:30 PM50 °FClear.10 mph54%29.65 "Hg10 mi
8:00 PM50 °FClear.13 mph50%29.65 "Hg10 mi
7:30 PM52 °FSunny.13 mph47%29.65 "Hg10 mi
7:00 PM52 °FSunny.14 mph47%29.65 "Hg10 mi
6:30 PM54 °FSunny.14 mph44%29.65 "Hg10 mi
6:00 PM55 °FSunny.12 mph36%29.65 "Hg10 mi
5:30 PM57 °FPassing clouds.13 mph33%29.65 "HgN/A
5:00 PM57 °FSunny.12 mph33%29.65 "Hg10 mi
4:30 PM57 °FPassing clouds.10 mph33%29.65 "HgN/A
4:00 PM57 °FSunny.10 mph36%29.68 "Hg10 mi
3:30 PM57 °FPassing clouds.12 mph36%29.68 "HgN/A
3:00 PM57 °FPassing clouds.13 mph36%29.68 "HgN/A
2:30 PM57 °FPassing clouds.8 mph36%29.71 "HgN/A
2:00 PM55 °FSunny.10 mph33%29.71 "Hg10 mi
1:30 PM55 °FPassing clouds.8 mph36%29.74 "HgN/A
1:00 PM52 °FSunny.2 mph41%29.74 "Hg10 mi
12:30 PM54 °FPassing clouds.5 mph41%29.77 "HgN/A
12:00 PM54 °FPassing clouds.6 mph41%29.77 "HgN/A
11:30 AM50 °FPassing clouds.6 mph47%29.80 "HgN/A
11:00 AM50 °FSunny.7 mph43%29.80 "Hg10 mi
10:30 AM50 °FPassing clouds.9 mph43%29.83 "HgN/A
10:00 AM48 °FPassing clouds.13 mph50%29.83 "HgN/A
9:30 AM48 °FPassing clouds.10 mph54%29.83 "HgN/A
9:00 AM46 °FPassing clouds.13 mph57%29.83 "HgN/A
8:30 AM45 °FSunny.2 mph66%29.83 "Hg10 mi
8:00 AM43 °FSunny.1 mph76%29.83 "Hg10 mi
7:30 AM37 °FPassing clouds.1 mph81%29.83 "HgN/A
7:00 AM39 °FPassing clouds.1 mph75%29.83 "HgN/A
6:30 AM41 °FPassing clouds.6 mph76%29.83 "HgN/A
6:00 AM41 °FPassing clouds.8 mph76%29.83 "HgN/A
5:30 AM43 °FPassing clouds.8 mph71%29.83 "HgN/A
5:00 AM45 °FPassing clouds.10 mph66%29.83 "HgN/A
4:30 AM45 °FPassing clouds.9 mph66%29.83 "HgN/A
4:00 AM45 °FPassing clouds.9 mph66%29.86 "HgN/A
3:30 AM45 °FPartly cloudy.10 mph66%29.86 "HgN/A
3:00 AM43 °FPartly cloudy.9 mph76%29.86 "HgN/A
Weather by CustomWeather, © 2015

See weather overviewHow to use our weather pages